Location: Piotrkow Trybunalski
(51.4000°N, 19.6830°E)
Time: 13:32:49
(UTC+02:00)

A-11 Canister half - Pass Details

Date: 04 February 2023
Orbit: 1526 x 1682 km, 47.3° (Epoch: 26 March)

Event Time Altitude Azimuth Distance (km) Brightness Sun altitude
Rises 11:43:55 0° 287° (WNW) 4,715 11.4 22.3°
Reaches altitude 10° 11:47:22 10° 277° (W) 3,747 11.0 22.3°
Maximum altitude 11:55:15 31° 221° (SW) 2,505 11.2 22.4°
Drops below altitude 10° 12:03:22 10° 164° (SSE) 3,837 12.7 22.3°
Sets 12:06:58 0° 154° (SSE) 4,844 12.6 22.3°
